Hourly Data Report for September 11, 2017

All times are specified in Local Standard Time (LST). Add 1 hour to adjust for Daylight Saving Time where and when it is observed.

ST. PETERS
PRINCE EDWARD ISLAND

46°27'01.000" N
62°34'33.000" W
29.70 m
8300562
71310
ZSP

Download Data

Hourly Data (September 2017)
Hourly Data Report for September 11, 2017
Temp Definition
°C
Dew Point Temp Definition
°C
Rel Hum Definition
%
Wind Dir Definition
10's deg

Wind Spd Definition
km/h
Visibility Definition
km
Stn Press Definition
kPa
Hmdx Definition


Wind Chill Definition


Weather Definition


TIME
00:00 13.4 10.6 83 32 11   101.47     LegendNANA
01:00 14.0 11.2 83 33 12   101.43     LegendNANA
02:00 14.0 11.0 82 33 11   101.34     LegendNANA
03:00 14.0 11.0 82 33 11   101.29     LegendNANA
04:00 14.2 11.0 81 34 12   101.28     LegendNANA
05:00 14.2 11.2 82 34 16   101.21     LegendNANA
06:00 14.3 11.8 85 34 15   101.26     LegendNANA
07:00 14.7 11.4 81 34 20   101.23     LegendNANA
08:00 14.9 11.7 81 33 16   101.24     LegendNANA
09:00 14.6 11.8 84 1 12   101.29     LegendNANA
10:00 15.1 12.0 82 1 13   101.25     LegendNANA
11:00 15.4 11.5 78 36 17   101.20     LegendNANA
12:00 15.4 11.9 79 36 21   101.10     LegendNANA
13:00 16.5 11.7 73 35 25   101.13     LegendNANA
14:00 16.4 11.3 72 35 25   101.03     LegendNANA
15:00 15.7 12.2 79 35 31   100.99     LegendNANA
16:00 15.6 12.5 82 36 31   100.93     LegendNANA
17:00 15.0 11.9 82 36 31   100.93     LegendNANA
18:00 14.5 11.6 82 35 32   100.85     LegendNANA
19:00 14.4 11.2 81 35 30   100.89     LegendNANA
20:00 14.5 10.6 77 1 29   100.96     LegendNANA
21:00 14.3 10.8 79 36 26   100.95     LegendNANA
22:00 14.4 10.9 80 1 23   100.87     LegendNANA
23:00 14.6 11.2 80 36 23   100.84     LegendNANA

Notes on Data Quality.

Legend

  • E = Estimated
  • M = Missing
  • NA = Not Available
  • ‡ = Partner data that is not subject to review by the National Climate Archives
Date modified: